This is the latest recevied weather packets stored in our database for station/object AD6NH. If no packets are shown the sender has not sent any weather packets the latest 10 day(s).
| Time | Temp. | Humidity | Pressure | Rain* | Wind** | Luminosity | Snow |
|---|---|---|---|---|---|---|---|
| 1778036222 | 16.67° C | 63% | 1015.5 hPa | 0 mm | - | - | - |
| 1778035622 | 16.67° C | 62% | 1015.5 hPa | 0 mm | - | - | - |
| 1778035023 | 17.22° C | 60% | 1015.4 hPa | 0 mm | - | - | - |
| 1778034423 | 17.22° C | 58% | 1015.2 hPa | 0 mm | - | - | - |
| 1778033823 | 17.78° C | 58% | 1015.3 hPa | 0 mm | - | - | - |
| 1778033222 | 17.78° C | 59% | 1015.1 hPa | 0 mm | - | - | - |
| 1778032623 | 18.89° C | 55% | 1014.9 hPa | 0 mm | - | - | - |
| 1778032022 | 18.89° C | 54% | 1014.9 hPa | 0 mm | - | - | - |
| 1778031423 | 19.44° C | 54% | 1014.8 hPa | 0 mm | - | - | - |
| 1778030823 | 19.44° C | 54% | 1014.7 hPa | 0 mm | - | - | - |
| 1778030222 | 21.11° C | 38% | 1014.7 hPa | 0 mm | - | - | - |
| 1778029622 | 21.11° C | 38% | 1014.8 hPa | 0 mm | - | - | - |
| 1778029023 | 21.11° C | 38% | 1014.7 hPa | 0 mm | - | - | - |
| 1778028422 | 21.11° C | 38% | 1014.6 hPa | 0 mm | - | - | - |
| 1778027823 | 21.11° C | 38% | 1014.6 hPa | 0 mm | - | - | - |
| 1778027222 | 21.11° C | 38% | 1014.6 hPa | 0 mm | - | - | - |
| 1778026622 | 21.11° C | 38% | 1014.6 hPa | 0 mm | - | - | - |
| 1778026022 | 21.11° C | 38% | 1014.6 hPa | 0 mm | - | - | - |
| 1778025423 | 21.11° C | 38% | 1014.6 hPa | 0 mm | - | - | - |
| 1778024822 | 21.11° C | 38% | 1014.7 hPa | 0 mm | - | - | - |
| 1778024223 | 21.67° C | 38% | 1014.8 hPa | 0 mm | - | - | - |
| 1778023623 | 20.56° C | 43% | 1014.7 hPa | 0 mm | - | - | - |
| 1778023022 | 20° C | 44% | 1014.8 hPa | 0 mm | - | - | - |
| 1778022423 | 20.56° C | 43% | 1014.9 hPa | 0 mm | - | - | - |
| 1778021823 | 21.11° C | 42% | 1014.9 hPa | 0 mm | - | - | - |
* Rain latest hour (hover to see other rain measurements)
** Current wind speed in m/s (hover to see current wind gust speed)